Regional Weather Roundup
Issued by NWS Green Bay, WI

Home | Current Version | Previous Version | Text Only | Print | Product List | Glossary On
Versions: 1 2 3 4 5 6 7 8 9 10 11 12 13 14 15 16 17 18 19 20 21 22 23 24 25 26 27 28 29 30 31 32 33 34 35 36 37 38 39 40 41 42 43 44 45 46 47 48 49 50
000
ASUS43 KGRB 271210
RWRGRB

NORTH-CENTRAL AND NORTHEAST WISCONSIN REGIONAL WEATHER ROUNDUP
NATIONAL WEATHER SERVICE GREEN BAY WI
600 AM CST TUE JAN 27 2015

WIZ005-009-010>012-018-019-271300-
NORTH CENTRAL WISCONSIN

CITY           SKY/WX    TMP DP  RH WIND       PRES   REMARKS
IRONWOOD       CLOUDY    19  19 100 E5        30.05R
MANITOWISH WTR CLOUDY    19  19  98 CALM      30.04S FOG
ARBOR VITAE    CLOUDY    22  20  93 CALM      30.05R FOG
EAGLE RIVER    CLOUDY    19  17  89 CALM      30.05R
LAND O LAKES   CLOUDY    20  18  93 CALM      30.07R
RHINELANDER    CLOUDY    20  17  88 CALM      30.05R
PHILLIPS       CLOUDY    20  18  95 CALM      30.05R
ANTIGO         CLOUDY    20  20  99 E6        30.06R FOG
TOMAHAWK       CLOUDY    20  18  93 CALM      30.06R
MERRILL        CLOUDY    21  19  93 CALM      30.07R
$$

WIZ013-073-271300-
NORTHEAST WISCONSIN

CITY           SKY/WX    TMP DP  RH WIND       PRES   REMARKS
IRON MOUNTAIN  CLOUDY    17  14  88 CALM      30.09R
MARINETTE      CLOUDY    19  18  93 CALM      30.12R
OCONTO         CLOUDY    22  19  89 CALM      30.12R
$$

WIZ017-030-035>037-045-271300-
CENTRAL WISCONSIN

CITY           SKY/WX    TMP DP  RH WIND       PRES   REMARKS
MEDFORD        CLOUDY    21  19  94 CALM      30.05R FOG
WAUSAU         CLOUDY    22  20  92 NE5       30.05R FOG
MOSINEE        NOT AVBL
MARSHFIELD     CLOUDY    23  20  88 N6        30.07R FOG
WISC RAPIDS    CLOUDY    23  19  85 N5        30.09R
STEVENS POINT  CLOUDY    21  20  96 N3        30.08R FOG
WAUPACA        CLOUDY    26  22  86 CALM      30.09R
SHAWANO        CLOUDY    24  21  87 E3        30.11R
CLINTONVILLE   CLOUDY    23  21  93 NE5       30.10R
$$

WIZ038-039-048-051-271300-
FOX VALLEY

CITY           SKY/WX    TMP DP  RH WIND       PRES   REMARKS
NWS GREEN BAY  CLOUDY    23  20  88 NE7       30.11R
APPLETON       CLOUDY    25  19  80 NE6       30.08R
OSHKOSH        CLOUDY    25  20  81 NE6       30.08R
FOND DU LAC    CLOUDY    26  20  77 E7        30.07R
$$

WIZ022-050-052-271300-
EAST CENTRAL WISCONSIN

CITY           SKY/WX    TMP DP  RH WIND       PRES   REMARKS
STURGEON BAY   CLOUDY    19  16  86 NE5       30.13R
MANITOWOC      CLOUDY    24  19  81 CALM      30.10R
SHEBOYGAN      CLOUDY    25  18  74 NE6       30.08R
$$

LMZ563-521-522-541>543-271300-
LAKESHORE

STATION/POSITION TIME  TEMP    WIND        PRES    VSBY  WAVE
                       AIR SEA DIR/SP/G                  HT/PER
                 (UTC) (F)     (DEG/KT/KT) (MB)    (MI)  (FT/S)
SHEBOYGAN LKSHOR 1200   26      40/ 11/ 13 1019.9R
KEWAUNEE LKSHORE 1200   25      60/  5/ 10 1018.5R
NORTHPORT PIER   1200   24      40/  3/  5 1020.3R
SISTER BAY LKSHO 1200   20        CALM       N/A
CHAMBERS ISLAND  1200   19     340/  1/  2 1020.3R
MENOMINEE LKSHOR 1200   21      10/  4     1020.7R
$$



USA.gov is the U.S. government's official web portal to all federal, state and local government web resources and services.